This demonstration page uses our WeatherBlox Daily Observations layout. Learn more.

Left ArrowRight Arrow

Hourly Observations for May 9, 2021

Temp ( °F °C ) Dew Point ( °F °C ) Humidity (%) Winds ( mph kmh ) Pressure ( in mb ) Visibility ( mi km ) Precip ( " mm )
12:56 am 00:56 Cloudy 43 6.1 38 3.3 82 82 N 21 33 29.86 1011 10 16 0.00 0.00
1:56 am 01:56 Cloudy 42 5.6 39 3.9 89 89 NNE 17 28 29.89 1012 10 16 0.00 0.00
2:29 am 02:29 Cloudy 41 5 39 4 93 93 N 20 31 29.97 1015 10 16 0.00 0.00
2:56 am 02:56 Cloudy with Light Rain 41 5 39 3.9 93 93 N 16 26 29.91 1013 8 13 0.00 0.00
3:56 am 03:56 Cloudy with Mist and Fog 41 5 40 4.4 96 96 N 14 22 29.93 1014 5 8 0.00 0.00
4:37 am 04:37 Cloudy 41 5 39 4 93 93 N 18 30 30.00 1016 10 16 0.00 0.00
4:56 am 04:56 Cloudy 41 5 39 3.9 93 93 N 17 28 29.95 1014 10 16 0.00 0.00
5:06 am 05:06 Cloudy 41 5 39 4 93 93 N 20 31 30.01 1016 10 16 0.00 0.00
5:56 am 05:56 Cloudy 40 4.4 38 3.3 93 93 N 18 30 29.98 1015 10 16 0.00 0.00
6:56 am 06:56 Cloudy 41 5 38 3.3 89 89 N 22 35 30.01 1016 10 16 0.00 0.00
7:56 am 07:56 Cloudy 40 4.4 38 3.3 93 93 N 18 30 30.06 1018 8 13 0.00 0.00
8:56 am 08:56 Cloudy with Mist and Fog 40 4.4 39 3.9 97 97 N 17 28 30.09 1019 5 8 0.00 0.00
9:56 am 09:56 Cloudy 41 5 39 3.9 93 93 N 14 22 30.12 1020 10 16 0.00 0.00
10:56 am 10:56 Cloudy 42 5.6 38 3.3 85 85 NNE 14 22 30.14 1021 10 16 0.00 0.00
11:05 am 11:05 Cloudy 43 6 37 3 81 81 N 14 22 30.16 1021 10 16 0.00 0.00
11:56 am 11:56 Cloudy 42 5.6 39 3.9 89 89 N 12 19 30.16 1021 10 16 0.00 0.00
12:56 pm 12:56 Cloudy 45 7.2 38 3.3 77 77 NE 15 24 30.14 1021 10 16 0.00 0.00
1:03 pm 13:03 Cloudy 45 7 37 3 76 76 NE 14 22 30.15 1021 10 16 0.00 0.00
1:56 pm 13:56 Cloudy 46 7.8 38 3.3 73 73 NNE 13 20 30.14 1021 10 16 0.00 0.00
2:56 pm 14:56 Cloudy 48 8.9 38 3.3 68 68 VRB 6 9 30.14 1021 10 16 0.00 0.00
3:56 pm 15:56 Cloudy 49 9.4 37 2.8 64 64 NNE 12 19 30.13 1020 10 16 0.00 0.00
4:08 pm 16:08 Cloudy 50 10 37 3 62 62 NNE 12 19 30.11 1019 10 16 0.00 0.00
4:56 pm 16:56 Cloudy 49 9.4 37 2.8 64 64 NNE 8 13 30.12 1020 10 16 0.00 0.00
5:56 pm 17:56 Cloudy 50 10 37 2.8 61 61 NNE 10 17 30.13 1020 10 16 0.00 0.00
6:56 pm 18:56 Cloudy 50 10 37 2.8 61 61 NE 8 13 30.14 1021 10 16 0.00 0.00
7:56 pm 19:56 Cloudy 49 9.4 36 2.2 61 61 NE 8 13 30.15 1021 10 16 0.00 0.00
8:56 pm 20:56 Mostly Clear 44 6.7 35 1.7 71 71 NNE 8 13 30.16 1021 10 16 0.00 0.00
9:56 pm 21:56 Clear 43 6.1 34 1.1 71 71 Calm 30.20 1023 10 16 0.00 0.00
10:56 pm 22:56 Clear 41 5 34 1.1 76 76 Calm 30.21 1023 10 16 0.00 0.00
11:56 pm 23:56 Clear 38 3.3 32 0 79 79 NW 5 7 30.21 1023 10 16 0.00 0.00

Powered by AerisWeather